Time,TemperatureF,DewpointF,PressureIn,WindDirection,WindDirectionDegrees,WindSpeedMPH,WindSpeedGustMPH,Humidity,HourlyPrecipIn,Conditions,Clouds,dailyrainin,SolarRadiationWatts/m^2,SoftwareType,DateUTC
2013-01-07 00:02:00,15.0,8.0,-100.00,North,357,0.0,0.0,72,0.00,,,0.00,0.000000,,2013-01-07 07:02:00,
2013-01-07 00:33:00,18.0,7.0,-100.00,NNE,31,0.0,7.0,62,0.00,,,0.00,0.000000,,2013-01-07 07:33:00,
2013-01-07 00:42:00,18.0,7.0,-100.00,NNE,31,0.0,7.0,62,0.00,,,0.00,0.000000,,2013-01-07 07:42:00,
2013-01-07 00:52:00,18.0,7.0,-100.00,NNE,31,0.0,7.0,62,0.00,,,0.00,0.000000,,2013-01-07 07:52:00,
2013-01-07 01:02:00,18.0,7.0,-100.00,NNE,31,0.0,7.0,62,0.00,,,0.00,0.000000,,2013-01-07 08:02:00,
2013-01-07 01:33:00,17.0,8.0,-100.00,NE,44,0.0,0.0,68,0.00,,,0.00,0.000000,,2013-01-07 08:33:00,
2013-01-07 01:43:00,17.0,8.0,-100.00,NE,44,0.0,0.0,68,0.00,,,0.00,0.000000,,2013-01-07 08:43:00,
2013-01-07 01:53:00,17.0,8.0,-100.00,NE,44,0.0,0.0,68,0.00,,,0.00,0.000000,,2013-01-07 08:53:00,
2013-01-07 02:02:00,17.0,8.0,-100.00,NE,44,0.0,0.0,68,0.00,,,0.00,0.000000,,2013-01-07 09:02:00,
2013-01-07 02:32:00,18.0,10.0,-100.00,NNE,32,0.0,0.0,69,0.00,,,0.00,0.000000,,2013-01-07 09:32:00,
2013-01-07 02:42:00,18.0,10.0,-100.00,NNE,32,0.0,0.0,69,0.00,,,0.00,0.000000,,2013-01-07 09:42:00,
2013-01-07 02:52:00,18.0,10.0,-100.00,NNE,32,0.0,0.0,69,0.00,,,0.00,0.000000,,2013-01-07 09:52:00,
2013-01-07 03:02:00,18.0,10.0,-100.00,NNE,32,0.0,0.0,69,0.00,,,0.00,0.000000,,2013-01-07 10:02:00,
2013-01-07 03:33:00,20.0,8.0,-100.00,NNE,14,0.0,7.0,60,0.00,,,0.00,0.000000,,2013-01-07 10:33:00,
2013-01-07 03:42:00,20.0,8.0,-100.00,NNE,14,0.0,7.0,60,0.00,,,0.00,0.000000,,2013-01-07 10:42:00,
2013-01-07 03:52:00,20.0,8.0,-100.00,NNE,14,0.0,7.0,60,0.00,,,0.00,0.000000,,2013-01-07 10:52:00,
2013-01-07 04:02:00,20.0,8.0,-100.00,NNE,14,0.0,7.0,60,0.00,,,0.00,0.000000,,2013-01-07 11:02:00,
2013-01-07 04:33:00,15.0,8.0,-100.00,ENE,59,2.0,6.0,73,0.00,,,0.00,0.000000,,2013-01-07 11:33:00,
2013-01-07 04:43:00,15.0,8.0,-100.00,ENE,59,2.0,6.0,73,0.00,,,0.00,0.000000,,2013-01-07 11:43:00,
2013-01-07 04:53:00,15.0,8.0,-100.00,ENE,59,2.0,6.0,73,0.00,,,0.00,0.000000,,2013-01-07 11:53:00,
2013-01-07 05:02:00,15.0,8.0,-100.00,ENE,59,2.0,6.0,73,0.00,,,0.00,0.000000,,2013-01-07 12:02:00,
2013-01-07 05:33:00,13.0,5.0,-100.00,North,357,0.0,6.0,70,0.00,,,0.00,0.000000,,2013-01-07 12:33:00,
2013-01-07 05:43:00,13.0,5.0,-100.00,North,357,0.0,6.0,70,0.00,,,0.00,0.000000,,2013-01-07 12:43:00,
2013-01-07 05:53:00,13.0,5.0,-100.00,North,357,0.0,6.0,70,0.00,,,0.00,0.000000,,2013-01-07 12:53:00,
2013-01-07 06:02:00,13.0,5.0,-100.00,North,357,0.0,6.0,70,0.00,,,0.00,0.000000,,2013-01-07 13:02:00,
2013-01-07 06:33:00,11.0,6.0,-100.00,NNE,33,0.0,0.0,79,0.00,,,-99.99,0.000000,,2013-01-07 13:33:00,
2013-01-07 06:43:00,11.0,6.0,-100.00,NNE,33,0.0,0.0,79,0.00,,,-99.99,0.000000,,2013-01-07 13:43:00,
2013-01-07 06:53:00,11.0,6.0,-100.00,NNE,33,0.0,0.0,79,0.00,,,-99.99,0.000000,,2013-01-07 13:53:00,
2013-01-07 07:02:00,11.0,6.0,-100.00,NNE,33,0.0,0.0,79,0.00,,,-99.99,0.000000,,2013-01-07 14:02:00,
2013-01-07 07:33:00,13.0,9.0,-100.00,NE,45,0.0,0.0,83,0.00,,,0.00,0.000000,,2013-01-07 14:33:00,
2013-01-07 07:43:00,13.0,9.0,-100.00,NE,45,0.0,0.0,83,0.00,,,0.00,0.000000,,2013-01-07 14:43:00,
2013-01-07 07:53:00,13.0,9.0,-100.00,NE,45,0.0,0.0,83,0.00,,,0.00,0.000000,,2013-01-07 14:53:00,
2013-01-07 08:02:00,13.0,9.0,-100.00,NE,45,0.0,0.0,83,0.00,,,0.00,0.000000,,2013-01-07 15:02:00,
2013-01-07 08:33:00,14.0,6.0,-100.00,NW,306,0.0,0.0,71,0.00,,,0.00,10.000000,,2013-01-07 15:33:00,
2013-01-07 08:43:00,14.0,6.0,-100.00,NW,306,0.0,0.0,71,0.00,,,0.00,10.000000,,2013-01-07 15:43:00,
2013-01-07 08:53:00,14.0,6.0,-100.00,NW,306,0.0,0.0,71,0.00,,,0.00,10.000000,,2013-01-07 15:53:00,
2013-01-07 09:02:00,14.0,6.0,-100.00,NW,306,0.0,0.0,71,0.00,,,0.00,10.000000,,2013-01-07 16:02:00,
2013-01-07 09:33:00,26.0,13.0,-100.00,ENE,76,7.0,10.0,58,0.00,,,0.00,122.000000,,2013-01-07 16:33:00,
2013-01-07 09:43:00,26.0,13.0,-100.00,ENE,76,7.0,10.0,58,0.00,,,0.00,122.000000,,2013-01-07 16:43:00,
2013-01-07 09:53:00,26.0,13.0,-100.00,ENE,76,7.0,10.0,58,0.00,,,0.00,122.000000,,2013-01-07 16:53:00,
2013-01-07 10:02:00,26.0,13.0,-100.00,ENE,76,7.0,10.0,58,0.00,,,0.00,122.000000,,2013-01-07 17:02:00,
2013-01-07 10:33:00,32.0,13.0,-100.00,ENE,59,8.0,15.0,44,0.00,,,0.00,324.000000,,2013-01-07 17:33:00,
2013-01-07 10:42:00,32.0,13.0,-100.00,ENE,59,8.0,15.0,44,0.00,,,0.00,324.000000,,2013-01-07 17:42:00,
2013-01-07 10:53:00,32.0,13.0,-100.00,ENE,59,8.0,15.0,44,0.00,,,0.00,324.000000,,2013-01-07 17:53:00,
2013-01-07 11:02:00,32.0,13.0,-100.00,ENE,59,8.0,15.0,44,0.00,,,0.00,324.000000,,2013-01-07 18:02:00,
2013-01-07 11:33:00,33.0,12.0,-100.00,ENE,64,12.0,16.0,42,0.00,,,0.00,457.000000,,2013-01-07 18:33:00,
2013-01-07 11:43:00,33.0,12.0,-100.00,ENE,64,12.0,16.0,42,0.00,,,0.00,457.000000,,2013-01-07 18:43:00,
2013-01-07 11:53:00,33.0,12.0,-100.00,ENE,64,12.0,16.0,42,0.00,,,0.00,457.000000,,2013-01-07 18:53:00,
2013-01-07 12:02:00,33.0,12.0,-100.00,ENE,64,12.0,16.0,42,0.00,,,0.00,457.000000,,2013-01-07 19:02:00,
2013-01-07 12:33:00,35.0,13.0,-100.00,ENE,59,13.0,18.0,40,0.00,,,0.00,539.000000,,2013-01-07 19:33:00,
2013-01-07 12:43:00,35.0,13.0,-100.00,ENE,59,13.0,18.0,40,0.00,,,0.00,539.000000,,2013-01-07 19:43:00,
2013-01-07 12:53:00,35.0,13.0,-100.00,ENE,59,13.0,18.0,40,0.00,,,0.00,539.000000,,2013-01-07 19:53:00,
2013-01-07 13:02:00,35.0,13.0,-100.00,ENE,59,13.0,18.0,40,0.00,,,0.00,539.000000,,2013-01-07 20:02:00,
2013-01-07 13:33:00,37.0,14.0,-100.00,NE,53,12.0,19.0,39,0.00,,,0.00,560.000000,,2013-01-07 20:33:00,
2013-01-07 13:43:00,37.0,14.0,-100.00,NE,53,12.0,19.0,39,0.00,,,0.00,560.000000,,2013-01-07 20:43:00,
2013-01-07 13:53:00,37.0,14.0,-100.00,NE,53,12.0,19.0,39,0.00,,,0.00,560.000000,,2013-01-07 20:53:00,
2013-01-07 14:02:00,37.0,14.0,-100.00,NE,53,12.0,19.0,39,0.00,,,0.00,560.000000,,2013-01-07 21:02:00,
2013-01-07 14:33:00,38.0,15.0,-100.00,NE,54,11.0,21.0,39,0.00,,,0.00,522.000000,,2013-01-07 21:33:00,
2013-01-07 14:43:00,38.0,15.0,-100.00,NE,54,11.0,21.0,39,0.00,,,0.00,522.000000,,2013-01-07 21:43:00,
2013-01-07 14:53:00,38.0,15.0,-100.00,NE,54,11.0,21.0,39,0.00,,,0.00,522.000000,,2013-01-07 21:53:00,
2013-01-07 15:02:00,38.0,15.0,-100.00,NE,54,11.0,21.0,39,0.00,,,0.00,522.000000,,2013-01-07 22:02:00,
2013-01-07 15:33:00,38.0,13.0,-100.00,NE,54,12.0,21.0,35,0.00,,,0.00,425.000000,,2013-01-07 22:33:00,
2013-01-07 15:43:00,38.0,13.0,-100.00,NE,54,12.0,21.0,35,0.00,,,0.00,425.000000,,2013-01-07 22:43:00,
2013-01-07 15:53:00,38.0,13.0,-100.00,NE,54,12.0,21.0,35,0.00,,,0.00,425.000000,,2013-01-07 22:53:00,
2013-01-07 16:02:00,38.0,13.0,-100.00,NE,54,12.0,21.0,35,0.00,,,0.00,425.000000,,2013-01-07 23:02:00,
2013-01-07 16:33:00,36.0,10.0,-100.00,ENE,65,10.0,23.0,33,0.00,,,0.00,282.000000,,2013-01-07 23:33:00,
2013-01-07 16:43:00,36.0,10.0,-100.00,ENE,65,10.0,23.0,33,0.00,,,0.00,282.000000,,2013-01-07 23:43:00,
2013-01-07 16:53:00,36.0,10.0,-100.00,ENE,65,10.0,23.0,33,0.00,,,0.00,282.000000,,2013-01-07 23:53:00,
2013-01-07 17:02:00,36.0,10.0,-100.00,ENE,65,10.0,23.0,33,0.00,,,0.00,282.000000,,2013-01-08 00:02:00,
2013-01-07 17:33:00,33.0,9.0,-100.00,ENE,76,7.0,15.0,36,0.00,,,0.00,112.000000,,2013-01-08 00:33:00,
2013-01-07 17:42:00,33.0,9.0,-100.00,ENE,76,7.0,15.0,36,0.00,,,0.00,112.000000,,2013-01-08 00:42:00,
2013-01-07 17:52:00,33.0,9.0,-100.00,ENE,76,7.0,15.0,36,0.00,,,0.00,112.000000,,2013-01-08 00:52:00,
2013-01-07 18:02:00,33.0,9.0,-100.00,ENE,76,7.0,15.0,36,0.00,,,0.00,112.000000,,2013-01-08 01:02:00,
2013-01-07 18:33:00,28.0,8.0,-100.00,NE,55,5.0,11.0,42,0.00,,,0.00,5.000000,,2013-01-08 01:33:00,
2013-01-07 18:42:00,28.0,8.0,-100.00,NE,55,5.0,11.0,42,0.00,,,0.00,5.000000,,2013-01-08 01:42:00,
2013-01-07 18:52:00,28.0,8.0,-100.00,NE,55,5.0,11.0,42,0.00,,,0.00,5.000000,,2013-01-08 01:52:00,
2013-01-07 19:02:00,28.0,8.0,-100.00,NE,55,5.0,11.0,42,0.00,,,0.00,5.000000,,2013-01-08 02:02:00,
2013-01-07 19:33:00,27.0,6.0,-100.00,ENE,64,8.0,11.0,41,0.00,,,0.00,0.000000,,2013-01-08 02:33:00,
2013-01-07 19:43:00,27.0,6.0,-100.00,ENE,64,8.0,11.0,41,0.00,,,0.00,0.000000,,2013-01-08 02:43:00,
2013-01-07 19:53:00,27.0,6.0,-100.00,ENE,64,8.0,11.0,41,0.00,,,0.00,0.000000,,2013-01-08 02:53:00,
2013-01-07 20:02:00,27.0,6.0,-100.00,ENE,64,8.0,11.0,41,0.00,,,0.00,0.000000,,2013-01-08 03:02:00,
2013-01-07 20:33:00,24.0,5.0,-100.00,NW,326,3.0,10.0,44,0.00,,,0.00,0.000000,,2013-01-08 03:33:00,
2013-01-07 20:43:00,24.0,5.0,-100.00,NW,326,3.0,10.0,44,0.00,,,0.00,0.000000,,2013-01-08 03:43:00,
2013-01-07 20:53:00,24.0,5.0,-100.00,NW,326,3.0,10.0,44,0.00,,,0.00,0.000000,,2013-01-08 03:53:00,
2013-01-07 21:02:00,24.0,5.0,-100.00,NW,326,3.0,10.0,44,0.00,,,0.00,0.000000,,2013-01-08 04:02:00,
2013-01-07 21:32:00,17.0,8.0,-100.00,NW,321,1.0,4.0,66,0.00,,,0.00,0.000000,,2013-01-08 04:32:00,
2013-01-07 21:43:00,17.0,8.0,-100.00,NW,321,1.0,4.0,66,0.00,,,0.00,0.000000,,2013-01-08 04:43:00,
2013-01-07 21:52:00,17.0,8.0,-100.00,NW,321,1.0,4.0,66,0.00,,,0.00,0.000000,,2013-01-08 04:52:00,
2013-01-07 22:03:00,17.0,8.0,-100.00,NW,321,1.0,4.0,66,0.00,,,0.00,0.000000,,2013-01-08 05:03:00,
2013-01-07 22:33:00,14.0,6.0,-100.00,NNW,348,1.0,3.0,71,0.00,,,-99.99,0.000000,,2013-01-08 05:33:00,
2013-01-07 22:43:00,14.0,6.0,-100.00,NNW,348,1.0,3.0,71,0.00,,,-99.99,0.000000,,2013-01-08 05:43:00,
2013-01-07 22:53:00,14.0,6.0,-100.00,NNW,348,1.0,3.0,71,0.00,,,-99.99,0.000000,,2013-01-08 05:53:00,
2013-01-07 23:02:00,14.0,6.0,-100.00,NNW,348,1.0,3.0,71,0.00,,,-99.99,0.000000,,2013-01-08 06:02:00,
2013-01-07 23:33:00,15.0,5.0,-100.00,NE,51,3.0,6.0,65,0.00,,,0.00,0.000000,,2013-01-08 06:33:00,
2013-01-07 23:43:00,15.0,5.0,-100.00,NE,51,3.0,6.0,65,0.00,,,0.00,0.000000,,2013-01-08 06:43:00,
2013-01-07 23:52:00,15.0,5.0,-100.00,NE,51,3.0,6.0,65,0.00,,,0.00,0.000000,,2013-01-08 06:52:00,